Weather History for KAUH - April, 2013

Change the Weather History Date:

Sunday, April 21, 2013

  Actual Average Record
Temperature  
Mean Temperature 53 °F -  
Max Temperature 72 °F 63 °F 90 °F (1980)
Min Temperature 35 °F 40 °F 25 °F (1992)
Degree Days  
Heating Degree Days 12    
Growing Degree Days 3 (Base 50)    
Moisture  
Dew Point 40 °F    
Average Humidity 66    
Maximum Humidity 94    
Minimum Humidity 29    
Precipitation  
Precipitation 0.07 in - - ()
Sea Level Pressure  
Sea Level Pressure 30.03 in    
Wind  
Wind Speed 12 mph (South)    
Max Wind Speed 24 mph    
Max Gust Speed 30 mph    
Visibility 10 miles    
Events Rain , Thunderstorm    
Averages and records for this station are not official NWS values.
T = Trace of Precipitation, MM = Missing Value Source: NWS Daily Summary

Daily Weather History Graph

Daily Weather History Graph

Search for Another Location

Airport or City:

Trip Planner

Search our weather history database for the weather conditions in past years. The results will help you decide how hot, cold, wet, or windy it might be!

Date:

Astronomy

Apr. 21, 2013 Rise Set
Actual Time 6:43 AM CDT 8:18 PM CDT
Civil Twilight 6:14 AM CDT 8:47 PM CDT
Nautical Twilight 5:39 AM CDT 9:22 PM CDT
Astronomical Twilight 5:02 AM CDT 9:59 PM CDT
Moon 4:03 PM CDT (4/21) 4:08 AM CDT (4/21)
Length of Visible Light 14h 32m
Length of Day
13h 34m
Waxing Gibbous, 80% of the Moon is Illuminated
Apr 21
Waxing Gibbous
Apr 25
Full
May 2
Last Quarter
May 9
New
May 17
First Quarter

Hourly Weather History & Observations

Time (CDT) Temp. Windchill Dew Point Humidity Pressure Visibility Wind Dir Wind Speed Gust Speed Precip Events Conditions
12:15 AM 38.5 °F 31.6 °F 31.1 °F 75% 30.08 in 10.0 mi ESE 10.4 mph - N/A   Clear
12:35 AM 37.9 °F 30.9 °F 31.5 °F 77% 30.07 in 10.0 mi ESE 10.4 mph - N/A   Clear
12:55 AM 37.8 °F 30.7 °F 31.6 °F 79% 30.07 in 10.0 mi ESE 10.4 mph - N/A   Clear
1:15 AM 37.9 °F 30.9 °F 32.0 °F 79% 30.06 in 10.0 mi ESE 10.4 mph - N/A   Clear
1:35 AM 37.8 °F 30.7 °F 32.0 °F 80% 30.06 in 10.0 mi ESE 10.4 mph - N/A   Clear
4:15 AM 35.6 °F 29.2 °F 32.5 °F 89% 30.03 in 10.0 mi SE 8.1 mph - N/A   Clear
4:35 AM 36.3 °F 30.1 °F 33.1 °F 88% 30.03 in 10.0 mi SE 8.1 mph - N/A   Clear
4:55 AM 36.1 °F 29.9 °F 33.3 °F 89% 30.03 in 10.0 mi SSE 8.1 mph - N/A   Clear
5:15 AM 36.5 °F 29.7 °F 33.6 °F 89% 30.03 in 10.0 mi SSE 9.2 mph - N/A   Clear
5:35 AM 36.0 °F 29.6 °F 33.4 °F 91% 30.03 in 10.0 mi SSE 8.1 mph - N/A   Clear
5:55 AM 35.6 °F 29.2 °F 33.4 °F 92% 30.03 in 10.0 mi SSE 8.1 mph - N/A   Clear
6:15 AM 35.4 °F 29.7 °F 33.6 °F 93% 30.03 in 10.0 mi SSE 6.9 mph - N/A   Scattered Clouds
6:35 AM 35.6 °F 29.9 °F 34.0 °F 94% 30.03 in 10.0 mi SSE 6.9 mph - N/A   Clear
6:55 AM 36.9 °F 32.2 °F 35.2 °F 94% 30.04 in 10.0 mi SSE 5.8 mph - N/A   Scattered Clouds
7:15 AM 39.2 °F 32.5 °F 36.9 °F 91% 30.04 in 10.0 mi South 10.4 mph - N/A   Scattered Clouds
7:35 AM 41.4 °F 35.2 °F 37.9 °F 88% 30.05 in 10.0 mi South 10.4 mph - N/A   Clear
7:55 AM 42.3 °F 35.5 °F 38.5 °F 86% 30.05 in 10.0 mi South 12.7 mph - N/A   Clear
8:15 AM 44.2 °F 39.7 °F 39.7 °F 84% 30.06 in 10.0 mi South 8.1 mph - N/A   Clear
8:35 AM 46.2 °F 41.7 °F 40.6 °F 81% 30.06 in 10.0 mi South 9.2 mph - N/A   Clear
8:55 AM 48.6 °F - 41.5 °F 77% 30.05 in 10.0 mi South 9.2 mph - N/A   Clear
9:15 AM 50.9 °F - 42.1 °F 72% 30.05 in 10.0 mi South 13.8 mph 18.4 mph N/A   Clear
9:35 AM 53.6 °F - 41.9 °F 65% 30.05 in 10.0 mi SSW 17.3 mph 23.0 mph N/A   Clear
9:55 AM 55.9 °F - 40.5 °F 56% 30.04 in 10.0 mi SSW 24.2 mph 28.8 mph N/A   Clear
10:15 AM 56.3 °F - 40.5 °F 55% 30.04 in 10.0 mi SSW 21.9 mph 27.6 mph N/A   Clear
10:35 AM 57.9 °F - 39.6 °F 50% 30.04 in 10.0 mi SSW 21.9 mph 29.9 mph N/A   Clear
10:55 AM 59.0 °F - 38.8 °F 47% 30.03 in 10.0 mi SSW 24.2 mph 29.9 mph N/A   Clear
11:15 AM 59.9 °F - 38.8 °F 46% 30.03 in 10.0 mi SSW 18.4 mph 26.5 mph N/A   Scattered Clouds
11:35 AM 60.8 °F - 38.3 °F 43% 30.03 in 10.0 mi SSW 20.7 mph 27.6 mph N/A   Clear
11:55 AM 60.3 °F - 37.8 °F 43% 30.03 in 10.0 mi SSW 23.0 mph - N/A   Scattered Clouds
12:15 PM 62.8 °F - 38.3 °F 40% 30.02 in 10.0 mi SSW 21.9 mph 26.5 mph N/A   Scattered Clouds
12:35 PM 63.7 °F - 38.8 °F 40% 30.02 in 10.0 mi SW 21.9 mph 25.3 mph N/A   Clear
12:55 PM 65.7 °F - 39.0 °F 38% 30.02 in 10.0 mi SW 18.4 mph - N/A   Clear
1:15 PM 66.6 °F - 37.4 °F 34% 30.01 in 10.0 mi SW 18.4 mph 25.3 mph N/A   Clear
1:35 PM 67.1 °F - 37.9 °F 34% 30.00 in 10.0 mi SW 16.1 mph 25.3 mph N/A   Mostly Cloudy
1:55 PM 68.0 °F - 37.8 °F 33% 30.00 in 10.0 mi SSW 18.4 mph 25.3 mph N/A   Scattered Clouds
2:15 PM 68.4 °F - 37.4 °F 32% 29.99 in 10.0 mi SW 20.7 mph 24.2 mph N/A   Scattered Clouds
2:35 PM 69.4 °F - 37.9 °F 32% 29.98 in 10.0 mi SW 16.1 mph 24.2 mph N/A   Mostly Cloudy
2:55 PM 69.6 °F - 37.2 °F 31% 29.98 in 10.0 mi SSW 15.0 mph 25.3 mph N/A   Mostly Cloudy
3:15 PM 70.7 °F - 37.4 °F 30% 29.97 in 10.0 mi SW 15.0 mph 21.9 mph N/A   Scattered Clouds
3:35 PM 70.0 °F - 37.0 °F 30% 29.97 in 10.0 mi SSW 12.7 mph 19.6 mph N/A   Mostly Cloudy
3:55 PM 69.8 °F - 37.0 °F 30% 29.97 in 10.0 mi West 12.7 mph 23.0 mph N/A   Overcast
4:15 PM 71.4 °F - 37.8 °F 29% 29.97 in 10.0 mi SW 15.0 mph 19.6 mph N/A   Overcast
4:35 PM 68.5 °F - 36.5 °F 31% 29.97 in 10.0 mi SW 10.4 mph - N/A   Mostly Cloudy
4:55 PM 69.1 °F - 36.7 °F 30% 29.96 in 10.0 mi WSW 8.1 mph - N/A   Overcast
5:15 PM 69.6 °F - 36.9 °F 30% 29.96 in 10.0 mi WSW 11.5 mph - N/A   Scattered Clouds
5:35 PM 68.4 °F - 37.0 °F 32% 29.96 in 10.0 mi SW 10.4 mph - N/A   Mostly Cloudy
5:55 PM 65.8 °F - 40.5 °F 39% 29.96 in 7.0 mi North 13.8 mph 20.7 mph N/A Rain Rain
6:15 PM 59.4 °F - 45.3 °F 60% 29.98 in 10.0 mi NNW 13.8 mph 23.0 mph 0.02 in Rain Heavy Rain
6:35 PM 58.3 °F - 46.9 °F 66% 30.01 in 10.0 mi North 4.6 mph - 0.06 in Rain Light Rain
6:55 PM 59.2 °F - 48.4 °F 67% 30.01 in 10.0 mi SE 4.6 mph - 0.07 in Rain Light Rain
7:15 PM 57.2 °F - 51.3 °F 81% 30.01 in 10.0 mi East 8.1 mph - N/A   Mostly Cloudy
7:35 PM 55.8 °F - 50.5 °F 83% 30.00 in 10.0 mi ENE 6.9 mph - N/A   Overcast
7:55 PM 56.8 °F - 49.1 °F 75% 30.02 in 10.0 mi SSW 8.1 mph - N/A   Overcast
8:15 PM 56.8 °F - 47.5 °F 71% 30.02 in 10.0 mi Calm Calm - N/A   Light Drizzle
8:35 PM 54.0 °F - 48.4 °F 81% 30.03 in 10.0 mi NNE 6.9 mph - N/A   Scattered Clouds
8:55 PM 52.5 °F - 48.7 °F 87% 30.04 in 10.0 mi NE 8.1 mph - N/A Thunderstorm Clear
9:15 PM 51.8 °F - 48.2 °F 88% 30.05 in 10.0 mi NE 6.9 mph - N/A   Clear
9:35 PM 50.9 °F - 47.7 °F 89% 30.06 in 10.0 mi NE 12.7 mph - N/A   Clear
9:55 PM 50.5 °F - 47.5 °F 89% 30.07 in 10.0 mi ENE 11.5 mph - N/A Thunderstorm Scattered Clouds
10:15 PM 50.0 °F - 47.5 °F 91% 30.10 in 10.0 mi NE 9.2 mph - N/A   Mostly Cloudy
10:35 PM 49.8 °F - 47.3 °F 91% 30.11 in 10.0 mi NNE 13.8 mph - N/A Thunderstorm Overcast
10:55 PM 48.2 °F - 45.7 °F 91% 30.11 in 10.0 mi NNE 16.1 mph - N/A Thunderstorm Overcast
11:15 PM 47.1 °F - 45.0 °F 92% 30.12 in 10.0 mi North 13.8 mph - N/A   Mostly Cloudy
11:35 PM 46.4 °F 40.4 °F 44.6 °F 93% 30.13 in 10.0 mi NNE 13.8 mph - N/A   Mostly Cloudy
11:55 PM 46.0 °F 39.3 °F 44.1 °F 93% 30.12 in 10.0 mi NNE 16.1 mph - N/A   Mostly Cloudy